User: anonymous   Login
Location: Unspecified
(0.0000°N, 0.0000°E)
Time: 10:25:33
(UTC+00:00)
Language:

USA 229 - Orbit

View from above orbital plane
View from above orbital plane
View from above satellite
View from above satellite

Ground track
Ground track

The orbit data is extracted from the following two-line orbital elements,

1 37386U 11014A   15245.83499293 0.00000000  00000-0  00000-0 0    01
2 37386  63.4395 238.4453 0011000  35.9692 324.0307 13.40689802    04
Epoch (UTC): 02 September 2015 20:02:23
Eccentricity: 0.0011000
inclination: 63.4395°
perigee height: 1098 km
apogee height: 1115 km
right ascension of ascending node: 238.4453°
argument of perigee: 35.9692°
revolutions per day: 13.40689802
mean anomaly at epoch: 324.0307°
orbit number at epoch: 0

The dashed part of the orbit path shows where the satellite is in the earth's shadow,  

DLR